TKJ11V LTFJ-BKPR

Flight info

Callsign TKJ11V
Flight time N/A
Altitude 38000
Route VADEN1J/06L VADEN N618 BAKLO DCT LETNI DCT XAXAN XAXAN1D
Aircraft B38M/M-SDE1FGHILORVWXY/HB1

Departure

Time 2026-04-30 18:59
Airport Istanbul Sabiha Gökçen International Airport (LTFJ)

Arrival

Time N/A
Airport Priština Adem Jashari International Airport (BKPR)
Time Latitude Longitude Altitude Speed Heading
2026-04-30 18:26 40.90710 29.31852 321 ft 0 kts 334°
2026-04-30 18:47 40.90709 29.31852 323 ft 2 kts 334°
2026-04-30 18:48 40.90687 29.31867 323 ft 4 kts 334°
2026-04-30 18:48 40.90663 29.31882 322 ft 4 kts 329°
2026-04-30 18:48 40.90643 29.31904 322 ft 4 kts 307°
2026-04-30 18:48 40.90634 29.31933 322 ft 4 kts 260°
2026-04-30 18:49 40.90636 29.31944 320 ft 1 kts 243°
2026-04-30 18:52 40.90636 29.31943 320 ft 1 kts 243°
2026-04-30 18:52 40.90625 29.31934 321 ft 5 kts 201°
2026-04-30 18:52 40.90563 29.31953 323 ft 14 kts 153°
2026-04-30 18:53 40.90454 29.31966 322 ft 16 kts 221°
2026-04-30 18:53 40.90399 29.31827 321 ft 19 kts 244°
2026-04-30 18:53 40.90335 29.31653 323 ft 23 kts 244°
2026-04-30 18:53 40.90260 29.31449 323 ft 27 kts 244°
2026-04-30 18:54 40.90190 29.31259 322 ft 20 kts 244°
2026-04-30 18:54 40.90123 29.31077 321 ft 24 kts 244°
2026-04-30 18:54 40.90046 29.30865 322 ft 27 kts 243°
2026-04-30 18:54 40.89957 29.30628 323 ft 31 kts 244°
2026-04-30 18:55 40.89872 29.30396 321 ft 25 kts 244°
2026-04-30 18:55 40.89703 29.29935 322 ft 7 kts 244°
2026-04-30 18:55 40.89697 29.29918 322 ft 4 kts 244°
2026-04-30 18:56 40.89648 29.29784 321 ft 12 kts 244°
2026-04-30 18:56 40.89606 29.29670 321 ft 16 kts 244°
2026-04-30 18:56 40.89553 29.29528 322 ft 19 kts 244°
2026-04-30 18:57 40.89422 29.29253 323 ft 15 kts 198°
2026-04-30 18:57 40.89344 29.29283 323 ft 13 kts 153°
2026-04-30 18:57 40.89293 29.29336 323 ft 7 kts 112°
2026-04-30 18:58 40.89415 29.29727 322 ft 76 kts 64°
2026-04-30 18:58 40.89753 29.30641 325 ft 142 kts 64°
2026-04-30 18:58 40.90231 29.31960 723 ft 168 kts 62°
2026-04-30 18:59 40.91281 29.34707 2346 ft 181 kts 51°
2026-04-30 19:00 40.95694 29.35853 4128 ft 252 kts
2026-04-30 19:00 40.97501 29.35908 4898 ft 265 kts
2026-04-30 19:00 41.01289 29.36187 6642 ft 282 kts
2026-04-30 19:01 41.05267 29.36602 7496 ft 288 kts
2026-04-30 19:01 41.07271 29.36822 8463 ft 293 kts
2026-04-30 19:02 41.11409 29.37328 10172 ft 307 kts
2026-04-30 19:02 41.15725 29.37891 11803 ft 315 kts
2026-04-30 19:03 41.20146 29.38479 13508 ft 323 kts
2026-04-30 19:03 41.24681 29.39108 15084 ft 331 kts
2026-04-30 19:04 41.29281 29.39818 16623 ft 338 kts
2026-04-30 19:04 41.33999 29.40603 18152 ft 344 kts
2026-04-30 19:05 41.38783 29.41448 19463 ft 350 kts
2026-04-30 19:05 41.43628 29.42079 20704 ft 342 kts 343°
2026-04-30 19:06 41.47245 29.38850 21827 ft 309 kts 293°
2026-04-30 19:06 41.48158 29.36299 22401 ft 309 kts 287°
2026-04-30 19:06 41.49654 29.30893 23596 ft 312 kts 286°
2026-04-30 19:07 41.51196 29.25424 24084 ft 313 kts 286°
2026-04-30 19:07 41.51960 29.22714 24098 ft 312 kts 286°
2026-04-30 19:08 41.53484 29.17309 24105 ft 311 kts 286°
2026-04-30 19:08 41.55001 29.11923 24105 ft 311 kts 286°
2026-04-30 19:08 41.55762 29.09216 24105 ft 311 kts 286°
2026-04-30 19:09 41.57033 29.04703 24186 ft 316 kts 286°
2026-04-30 19:09 41.57846 29.01844 24212 ft 334 kts 287°
2026-04-30 19:09 41.58685 28.98925 24266 ft 350 kts 287°
2026-04-30 19:10 41.60420 28.92797 25216 ft 352 kts 286°
2026-04-30 19:10 41.62145 28.86624 26160 ft 356 kts 286°
2026-04-30 19:11 41.63013 28.83509 26623 ft 358 kts 286°
2026-04-30 19:11 41.64732 28.77298 27793 ft 353 kts 286°
2026-04-30 19:11 41.65579 28.74225 28398 ft 351 kts 286°
2026-04-30 19:12 41.66419 28.71170 29017 ft 348 kts 286°
2026-04-30 19:12 41.67253 28.68140 29637 ft 345 kts 285°
2026-04-30 19:12 41.68063 28.65187 30237 ft 341 kts 285°
2026-04-30 19:13 41.69691 28.59246 31156 ft 337 kts 285°
2026-04-30 19:13 41.71304 28.53364 31951 ft 335 kts 285°
2026-04-30 19:13 41.72107 28.50433 32336 ft 335 kts 285°
2026-04-30 19:14 41.72906 28.47512 32718 ft 334 kts 285°
2026-04-30 19:14 41.73700 28.44604 33096 ft 333 kts 285°
2026-04-30 19:14 41.74486 28.41725 33460 ft 332 kts 285°
2026-04-30 19:14 41.75275 28.38832 33853 ft 330 kts 285°
2026-04-30 19:15 41.76059 28.35954 34227 ft 328 kts 285°
2026-04-30 19:15 41.77624 28.30203 34711 ft 329 kts 285°
2026-04-30 19:15 41.78408 28.27320 34922 ft 330 kts 285°
2026-04-30 19:16 41.79195 28.24423 35135 ft 331 kts 285°
2026-04-30 19:16 41.79982 28.21523 35343 ft 331 kts 285°
2026-04-30 19:16 41.81605 28.15559 35251 ft 349 kts 286°
2026-04-30 19:17 41.82444 28.12478 35259 ft 356 kts 286°
2026-04-30 19:17 41.84166 28.06133 35310 ft 369 kts 286°
2026-04-30 19:17 41.85037 28.02911 35335 ft 376 kts 286°
2026-04-30 19:18 41.87762 27.92793 35711 ft 388 kts 286°
2026-04-30 19:18 41.88675 27.89382 35950 ft 389 kts 286°
2026-04-30 19:19 41.89587 27.85969 36188 ft 389 kts 286°
2026-04-30 19:19 41.90501 27.82538 36424 ft 390 kts 286°
2026-04-30 19:19 41.92338 27.75638 36848 ft 393 kts 286°
2026-04-30 19:20 41.93258 27.72177 37066 ft 394 kts 286°
2026-04-30 19:20 41.94181 27.68700 37276 ft 395 kts 286°
2026-04-30 19:20 41.96028 27.61731 37689 ft 397 kts 286°
2026-04-30 19:21 41.96953 27.58232 37885 ft 397 kts 287°
2026-04-30 19:21 41.98802 27.51223 38184 ft 399 kts 287°
2026-04-30 19:22 42.00651 27.44194 38172 ft 402 kts 287°
2026-04-30 19:23 42.06301 27.22946 38152 ft 405 kts 295°
2026-04-30 19:24 42.09798 27.16910 38148 ft 414 kts 306°
2026-04-30 19:24 42.11692 27.13981 38164 ft 415 kts 307°
2026-04-30 19:25 42.21285 26.99459 38197 ft 416 kts 307°
2026-04-30 19:26 42.28963 26.87845 38201 ft 413 kts 307°
2026-04-30 19:27 42.34678 26.79170 38211 ft 413 kts 307°
2026-04-30 19:28 42.40400 26.70458 38213 ft 411 kts 307°
2026-04-30 19:29 42.47956 26.58916 38223 ft 411 kts 307°
2026-04-30 19:30 42.53374 26.45958 38239 ft 399 kts 271°
2026-04-30 19:31 42.52445 26.30867 38241 ft 402 kts 264°
2026-04-30 19:31 42.51359 26.19584 38231 ft 402 kts 263°
2026-04-30 19:32 42.50611 26.12099 38225 ft 403 kts 263°
2026-04-30 19:32 42.49851 26.04556 38238 ft 404 kts 263°
2026-04-30 19:33 42.49083 25.96986 38235 ft 405 kts 263°
2026-04-30 19:33 42.48316 25.89474 38244 ft 405 kts 263°
2026-04-30 19:34 42.47538 25.81907 38241 ft 405 kts 263°
2026-04-30 19:35 42.46362 25.70565 38241 ft 405 kts 263°
2026-04-30 19:35 42.45571 25.62992 38248 ft 407 kts 263°
2026-04-30 19:36 42.44775 25.55426 38252 ft 407 kts 263°
2026-04-30 19:36 42.43569 25.44061 38240 ft 406 kts 263°
2026-04-30 19:37 42.42759 25.36488 38248 ft 406 kts 263°
2026-04-30 19:37 42.41948 25.28945 38236 ft 406 kts 263°
2026-04-30 19:38 42.41133 25.21419 38241 ft 406 kts 263°
2026-04-30 19:38 42.40309 25.13855 38232 ft 405 kts 263°
2026-04-30 19:39 42.39480 25.06304 38234 ft 405 kts 263°
2026-04-30 19:39 42.38654 24.98814 38226 ft 405 kts 263°